Location: Unspecified
(48.7670°N, 0.0000°E)
Time: 03:30:07
(UTC+00:00)

Altair - Pass Details

Date: 28 June 2019
Orbit: 1501 x 1683 km, 47.2° (Epoch: 17 July)

Event Time Altitude Azimuth Distance (km) Brightness Sun altitude
Rises 17:58:42 0° 224° (SW) 4,655 10.4 18.0°
Reaches altitude 10° 18:01:48 10° 219° (SW) 3,692 9.9 17.5°
Maximum altitude 18:10:40 50° 148° (SSE) 1,918 7.9 16.1°
Drops below altitude 10° 18:19:53 10° 77° (ENE) 3,836 9.1 14.7°
Sets 18:23:09 0° 72° (ENE) 4,848 9.6 14.2°
